Regional Weather Roundup
Issued by NWS

Home | Current Version | Previous Version | Graphics & Text | Print | Product List | Glossary Off
Versions: 1 2 3 4 5 6 7 8 9 10 11 12 13 14 15 16 17 18 19 20 21 22 23 24 25 26 27 28 29 30 31 32 33 34 35 36 37 38 39 40 41 42 43 44 45 46 47 48 49 50

000
ASUS43 KDMX 261508
RWRIA

WEATHER ROUNDUP FOR IOWA
NATIONAL WEATHER SERVICE DES MOINES IA
1000 AM CDT MON SEP 26 2016

NOTE: "FAIR" INDICATES FEW OR NO CLOUDS BELOW 12,000 FEET WITH NO
SIGNIFICANT WEATHER AND/OR OBSTRUCTIONS TO VISIBILITY.

* - THESE STATIONS ARE NOT NWS STATIONS...THUS NOT UNDER NWS
QUALITY CONTROL.  THEY ALSO DO NOT REPORT WEATHER SUCH
AS PRECIPITATION OR FOG.

IAZ001>003-012>014-020>022-031>034-043>046-261600-
   NORTHWEST IOWA

CITY           SKY/WX    TMP DP  RH WIND       PRES   REMARKS
CARROLL *      SUNNY     59  39  47 W15       30.18R
CHEROKEE *     SUNNY     56  40  55 W13       30.18S
DENISON *      SUNNY     57  41  54 W12       30.19S
LE MARS *      SUNNY     57  41  54 W8        30.20S
ORANGE CITY *  SUNNY     55  43  62 W13       30.18S
SHELDON *      SUNNY     57  39  51 W12       30.15S
SIOUX CITY     SUNNY     58  42  55 NW7       30.21S
SPENCER        SUNNY     57  38  48 W17       30.14S
STORM LAKE *   SUNNY     55  39  54 W14G20    30.17S
$$

IAZ055>058-069>071-079>083-090>094-261600-
   SOUTHWEST IOWA

CITY           SKY/WX    TMP DP  RH WIND       PRES   REMARKS
ATLANTIC *     SUNNY     61  41  48 W8        30.22S
AUDUBON *      SUNNY     59  41  51 W6        30.21R
CLARINDA *       N/A     59  43  55 MISG      30.26R
COUNCIL BLFS * SUNNY     59  41  51 W8G14     30.24S
CRESTON *      SUNNY     57  43  58 NW12      30.23R
HARLAN  *      SUNNY     59  43  55 W10G16    30.25S
LAMONI         SUNNY     60  42  51 NW15      30.22R
RED OAK *      SUNNY     61  43  51 W7        30.24S
SHENANDOAH *   SUNNY     59  46  63 W5        30.25S
$$

IAZ047>049-059>061-072>074-084-261600-
   CENTRAL IOWA

CITY           SKY/WX    TMP DP  RH WIND       PRES   REMARKS
AMES           SUNNY     59  42  53 NW15G22   30.15S
ANKENY *         N/A    N/A N/A N/A MISG        N/A
BOONE *        SUNNY     57  39  51 W13G20    30.15S
CHARITON *       N/A     61  43  51 NW10G16   30.18R
DES MOINES     SUNNY     61  41  47 NW12      30.16S
GRINNELL*      SUNNY     59  42  52 W15       30.14F
KNOXVILLE *    SUNNY     59  41  51 W14       30.15S
MARSHALLTOWN   SUNNY     59  42  53 W15G23    30.12R
NEWTON *       SUNNY     61  39  44 W14G20    30.14S
PELLA *        SUNNY     60  42  50 W14       30.16S
PERRY *          N/A     61  38  41 W9        30.17S
$$

IAZ004>006-015-016-023>025-035-036-261600-
   NORTH CENTRAL IOWA

CITY           SKY/WX    TMP DP  RH WIND       PRES   REMARKS
ALGONA *       SUNNY     57  39  51 W16       30.12S
CLARION *      SUNNY     57  39  51 W13G20    30.12S
ESTHERVILLE    SUNNY     56  37  49 NW16G23   30.11R
FORT DODGE *   SUNNY     59  45  58 W13G18    30.14S
MASON CITY     SUNNY     57  39  51 W16       30.08S
FOREST CITY *    N/A     59  37  44 W9G18     30.08S
WEBSTER CITY * SUNNY     59  39  47 W15G22    30.12S
IOWA FALLS *     N/A     59  40  50 W13G20    30.12S HAZE
$$

IAZ007>011-017>019-026>030-037>042-050>054-066-261600-
   NORTHEAST IOWA

CITY           SKY/WX    TMP DP  RH WIND       PRES   REMARKS
CEDAR RAPIDS   SUNNY     61  43  51 W18G25    30.09S
CHARLES CITY * SUNNY     57  37  47 W15G23    30.06S
CLINTON *      SUNNY     61  43  51 NW14G22   30.07S
DECORAH *      SUNNY     57  41  54 W8G18     30.01S
DUBUQUE        SUNNY     58  41  53 W15G26    30.04S
MONTICELLO *   SUNNY     61  41  48 W14G22    30.06S
OELWEIN *      SUNNY     59  41  51 W16G23    30.07R
WATERLOO       SUNNY     58  41  53 W12       30.07S
$$

IAZ064-065-067-068-078-261600-
   EAST CENTRAL IOWA

CITY           SKY/WX    TMP DP  RH WIND       PRES   REMARKS
DAVENPORT      SUNNY     62  40  44 W14G22    30.09R
IOWA CITY      SUNNY     61  42  49 W16G22    30.12S
MT. PLEASANT * SUNNY     64  43  46 W13G21    30.15R
MUSCATINE *    SUNNY     63  41  45 W17       30.11F
QUAD CITIES    SUNNY     63  42  46 W20G25    30.09R
$$

IAZ062-063-075>077-085>089-095>099-261600-
   SOUTHEAST IOWA

CITY           SKY/WX    TMP DP  RH WIND       PRES   REMARKS
BURLINGTON     SUNNY     63  42  46 NW12G21   30.14R
FAIRFIELD *    SUNNY     61  39  44 W12       30.14S
FORT MADISON * SUNNY     64  39  39 W10       30.16R
KEOKUK *       SUNNY     64  41  42 W10       30.16R
OSKALOOSA *      N/A     61  42  49 W14       30.16R
OTTUMWA        SUNNY     61  41  47 W10       30.16S
WASHINGTON *     N/A    N/A N/A N/A MISG        N/A
$$

ABBREVIATIONS USED IN REMARKS
   TC - TEMPERATURES IN CELSIUS
  WCI - WIND CHILL INDEX
   HX - HEAT INDEX
  VSB - VISIBILITY
$$




USA.gov is the U.S. government's official web portal to all federal, state and local government web resources and services.